Location: Jabiru
(12.6667°S, 132.8333°E)
Time: 03:12:57
(UTC+09:30)

Envisat - Pass Details

Date: 22 October 2019
Orbit: 764 x 766 km, 98.1° (Epoch: 14 November)

Event Time Altitude Azimuth Distance (km) Brightness Sun altitude
Rises 20:27:59 0° 201° (SSW) 3,243 6.8 -27.0°
Reaches altitude 10° 20:31:40 10° 228° (SW) 2,310 6.3 -27.8°
Maximum altitude 20:33:48 13° 253° (WSW) 2,124 6.2 -28.3°
Drops below altitude 10° 20:35:56 10° 278° (W) 2,302 6.2 -28.8°
Sets 20:39:36 0° 306° (NW) 3,221 6.6 -29.7°
